{"data":{"norad_id":68493,"intl_designator":"2026-067CF","name":"LEMUR-2-POLO-11","alt_names":[],"object_type":"PAYLOAD","status":"ACTIVE","operator":null,"country":"LUXE","launch_date":"2026-03-30","launch_site_code":"AFWTR","launch_vehicle":null,"mission":null,"orbit_class":"UNKNOWN","rcs_meters":null,"size_class":null,"mass_kg":null,"dimensions":null,"purposes":[],"wikipedia_slug":null,"has_3d_model":false,"image_url":null,"decayed_at":null,"tle_current":{"epoch":"2026-05-24T20:37:02.192160Z","epoch_age_seconds":87560,"freshness":"FRESH","line1":"1 68493U 26067CF  26144.85905315  .00003841  00000+0  39007-3 0  9991","line2":"2 68493  97.7638 103.4669 0005667  97.8682 262.3180 14.91401600  8247","mean_motion":14.914016,"eccentricity":0.0005667,"inclination_deg":97.7638,"raan_deg":103.4669,"arg_perigee_deg":97.8682,"mean_anomaly_deg":262.318,"bstar":0.00039007,"rev_number":824,"period_min":96.553470239002,"perigee_km":589.61343515697,"apogee_km":597.51516140845,"semimajor_km":6971.7012982827,"source":"CELESTRAK","updated_at":"2026-05-25T13:38:07.876646Z"}}}